Waarnemingen

Advertentie
Mijn weer
Nice, Frankrijk (7690): temperatuur & dauwpunt: 19.06.2019 14:00:00 - 25.06.2019 14:00:00 (CEST)Nice, Frankrijk (7690): temperatuur 5cm: 19.06.2019 14:00:00 - 25.06.2019 14:00:00 (CEST)Nice, Frankrijk (7690): temperatuur -20cm & temperatuur -100cm: 19.06.2019 14:00:00 - 25.06.2019 14:00:00 (CEST)Nice, Frankrijk (7690): windsnelheid & windstoten: 19.06.2019 14:00:00 - 25.06.2019 14:00:00 (CEST)Nice, Frankrijk (7690): windrichting: 19.06.2019 14:00:00 - 25.06.2019 14:00:00 (CEST)Nice, Frankrijk (7690): luchtdruk: 19.06.2019 14:00:00 - 25.06.2019 14:00:00 (CEST)Nice, Frankrijk (7690): zicht: 19.06.2019 14:00:00 - 25.06.2019 14:00:00 (CEST)Nice, Frankrijk (7690): Zonneschijnduur: 19.06.2019 14:00:00 - 25.06.2019 14:00:00 (CEST)Nice, Frankrijk (7690): neerslag: 19.06.2019 14:00:00 - 25.06.2019 14:00:00 (CEST)
Datum & Tijd tt [°C] td [°C] tt 5cm [°C] tt -20cm [°C] tt -100cm [°C] ff [km/u] ff [kn] fx [km/u] fx [kn] dd ppp [hPa] vv [km] sd [min] rr [mm]
25.06.2019 14:00:00 - - - - - - - - - - - - - -
25.06.2019 13:00:00 29,1 18,5 41,1 23,8 21,9 13 7 21 11 O 1021,1 40 60 0,0
25.06.2019 12:00:00 29,0 19,0 40,3 23,8 21,9 16 9 23 12 O 1021,1 40 60 0,0
25.06.2019 11:00:00 29,7 19,1 39,6 23,8 21,9 14 8 19 11 O 1021,0 40 60 0,0
25.06.2019 10:00:00 30,1 17,5 35,4 23,8 21,8 10 6 15 8 O 1021,0 30 60 0,0
25.06.2019 09:00:00 29,4 16,2 29,8 23,8 21,8 11 6 23 12 NNW 1020,7 30 60 0,0
25.06.2019 08:00:00 27,1 15,5 25,9 23,8 21,8 13 7 19 10 NNW 1020,3 30 60 0,0
25.06.2019 07:00:00 25,7 16,8 24,4 23,8 21,8 10 5 16 9 NO 1020,0 30 22 0,0
25.06.2019 06:00:00 25,3 14,4 24,3 23,8 21,9 11 6 20 11 NNW 1019,3 30 0 0,0
25.06.2019 05:00:00 25,6 14,4 24,6 23,8 21,8 13 7 23 13 NNW 1018,8 30 0 0,0
25.06.2019 04:00:00 25,7 14,5 24,7 23,7 21,8 14 7 19 11 NNW 1018,5 30 0 0,0
25.06.2019 03:00:00 25,8 14,3 24,3 23,7 21,8 14 8 22 12 NNW 1018,6 30 0 0,0
25.06.2019 02:00:00 25,5 14,6 24,3 23,7 21,8 14 8 23 12 NNW 1018,9 30 0 0,0
25.06.2019 01:00:00 25,8 14,6 24,4 23,6 21,8 14 8 18 10 NNW 1018,9 30 0 0,0
25.06.2019 00:00:00 25,8 14,9 25,0 23,7 21,8 13 7 20 11 NNW 1018,7 30 0 0,0
24.06.2019 23:00:00 26,5 15,8 23,0 23,6 21,8 10 5 12 7 NW 1018,6 30 0 0,0
24.06.2019 22:00:00 26,3 17,9 24,2 23,6 21,8 5 3 9 5 ONO 1018,2 30 0 0,0
24.06.2019 21:00:00 26,5 17,6 25,8 23,6 21,8 8 4 11 6 O 1018,0 30 35 0,0
24.06.2019 20:00:00 27,3 15,6 29,3 23,6 21,7 5 3 7 4 O 1017,9 30 60 0,0
24.06.2019 19:00:00 28,1 14,7 34,4 23,6 21,8 3 2 7 4 O 1017,8 30 60 0,0
24.06.2019 18:00:00 28,5 17,4 37,7 23,6 21,7 4 2 9 5 Z 1017,8 30 60 0,0
24.06.2019 17:00:00 28,3 17,2 40,7 23,6 21,7 5 3 8 5 ZZO 1017,9 30 60 0,0
24.06.2019 16:00:00 28,1 17,3 41,7 23,6 21,7 6 3 9 5 OZO 1018,0 30 60 0,0
24.06.2019 15:00:00 26,4 20,0 41,2 23,6 21,7 5 3 18 10 ZO 1018,2 30 60 0,0
24.06.2019 14:00:00 25,9 19,8 35,4 23,6 21,7 7 4 10 5 ZO 1018,3 30 44 0,0
24.06.2019 13:00:00 26,1 18,8 36,9 23,6 21,7 8 5 13 7 ZO 1018,4 30 60 0,0
24.06.2019 12:00:00 25,9 19,1 36,3 23,6 21,7 6 3 10 5 OZO 1018,4 30 60 0,0
24.06.2019 11:00:00 25,6 18,3 35,6 23,6 21,7 7 4 10 5 OZO 1018,2 30 60 0,0
24.06.2019 10:00:00 25,2 20,0 32,6 23,6 21,7 8 5 10 6 ZZO 1018,2 30 60 0,0
24.06.2019 09:00:00 24,8 17,8 28,2 23,5 21,7 6 3 8 4 O 1018,2 30 60 0,0
24.06.2019 08:00:00 24,0 16,5 22,4 23,6 21,7 3 2 5 3 ZO 1018,0 30 60 0,0
24.06.2019 07:00:00 22,7 16,3 17,9 23,5 21,7 0 0 8 4 N 1017,7 30 42 0,0
24.06.2019 06:00:00 20,8 16,2 16,2 23,5 21,7 3 2 8 5 N 1017,3 30 0 0,0
24.06.2019 05:00:00 19,6 16,8 16,4 23,5 21,7 4 2 6 4 N 1017,3 30 0 0,0
24.06.2019 04:00:00 20,0 16,8 16,6 23,5 21,7 0 0 8 4 N 1017,3 30 0 0,0
24.06.2019 03:00:00 20,8 17,2 18,2 23,5 21,6 0 0 6 4 N 1017,3 30 0 0,0
24.06.2019 02:00:00 21,4 17,6 19,4 23,5 21,7 4 2 9 5 NNW 1017,3 30 0 0,0
24.06.2019 01:00:00 21,0 18,8 19,3 23,4 21,6 5 3 8 5 WNW 1017,3 30 0 0,0
24.06.2019 00:00:00 21,8 19,2 19,1 23,5 21,6 5 3 6 3 W 1017,2 30 0 0,0
23.06.2019 23:00:00 22,3 19,7 20,0 23,4 21,6 0 0 3 2 N 1016,7 30 0 0,0
23.06.2019 22:00:00 22,7 19,9 21,5 23,4 21,6 3 1 6 3 OZO 1016,2 40 0 0,0
23.06.2019 21:00:00 23,1 20,2 23,0 23,4 21,6 4 2 8 4 Z 1015,7 40 0 0,0
23.06.2019 20:00:00 23,7 20,0 25,5 23,4 21,6 6 3 10 6 Z 1015,7 40 44 0,0
23.06.2019 19:00:00 24,3 20,0 27,7 23,4 21,6 9 5 13 7 Z 1015,6 30 43 0,0
23.06.2019 18:00:00 24,6 20,5 29,7 23,4 21,6 9 5 13 7 OZO 1015,3 30 31 0,0
23.06.2019 17:00:00 24,9 19,7 33,2 23,4 21,6 9 5 11 6 ZZO 1015,4 30 54 0,0
23.06.2019 16:00:00 25,1 19,2 38,7 23,4 21,6 7 4 15 8 ZZO 1015,3 30 60 0,0
23.06.2019 15:00:00 25,3 18,7 38,9 23,4 21,6 12 7 16 8 Z 1015,5 30 60 0,0
23.06.2019 14:00:00 25,0 18,2 38,1 23,4 21,6 8 4 13 7 ZO 1015,4 30 60 0,0
23.06.2019 13:00:00 24,5 18,2 37,0 23,4 21,6 9 5 17 9 ZO 1015,6 30 60 0,0
23.06.2019 12:00:00 24,6 19,0 34,4 23,4 21,6 14 8 18 10 Z 1015,5 30 58 0,0
23.06.2019 11:00:00 24,1 19,0 35,1 23,4 21,6 8 5 11 6 ZO 1014,7 40 60 0,0
23.06.2019 10:00:00 23,9 19,2 31,4 23,4 21,5 6 3 10 5 ZZO 1014,7 40 60 0,0
23.06.2019 09:00:00 23,6 18,5 26,9 23,4 21,5 6 3 12 6 OZO 1014,4 40 60 0,0
23.06.2019 08:00:00 23,4 16,9 21,2 23,4 21,5 10 5 15 8 NNO 1013,9 40 60 0,0
23.06.2019 07:00:00 20,8 14,2 18,2 23,4 21,5 10 5 17 9 NNW 1013,9 40 42 0,0
23.06.2019 06:00:00 19,5 14,5 18,2 23,4 21,5 11 6 17 9 NNW 1014,0 37 0 0,0
23.06.2019 05:00:00 19,5 14,7 18,5 23,4 21,5 13 7 16 9 NNW 1014,1 30 0 0,0
23.06.2019 04:00:00 19,7 14,9 18,8 23,4 21,5 11 6 15 8 NNW 1014,0 30 0 0,0
23.06.2019 03:00:00 20,2 15,2 19,2 23,4 21,5 11 6 16 8 NNW 1014,1 30 0 0,0
23.06.2019 02:00:00 20,5 15,7 19,4 23,4 21,5 10 6 14 8 NNW 1014,2 30 0 0,0
23.06.2019 01:00:00 20,8 16,2 19,8 23,4 21,5 10 5 14 8 NNW 1014,1 30 0 0,0
23.06.2019 00:00:00 21,4 16,6 20,5 23,4 21,5 11 6 16 9 NNW 1014,5 30 0 0,0
22.06.2019 23:00:00 21,8 18,0 20,4 23,4 21,5 8 4 13 7 NNW 1014,5 30 0 0,0
22.06.2019 22:00:00 23,0 17,5 19,4 23,3 21,4 4 2 8 4 NNW 1013,9 30 0 0,0
22.06.2019 21:00:00 22,7 19,3 22,0 23,3 21,4 4 2 11 6 Z 1013,5 30 33 0,0
22.06.2019 20:00:00 23,4 18,3 25,5 23,3 21,4 9 5 12 7 ZZW 1013,5 30 56 0,0
22.06.2019 19:00:00 24,0 16,5 26,2 23,3 21,4 7 4 14 7 ZW 1013,4 30 9 0,0
22.06.2019 18:00:00 24,5 15,7 27,5 23,3 21,4 8 4 15 8 W 1013,3 30 21 0,0
22.06.2019 17:00:00 23,5 17,7 23,0 23,3 21,4 10 6 28 15 NNW 1014,0 25 3 0,0
22.06.2019 16:00:00 22,0 17,8 20,9 23,3 21,4 13 7 27 15 NNW 1013,5 25 0 0,4
22.06.2019 15:00:00 25,2 17,9 30,9 23,3 21,4 8 4 18 10 O 1014,2 25 43 0,0
22.06.2019 14:00:00 25,9 18,3 31,1 23,3 21,4 13 7 16 9 OZO 1013,8 25 40 0,0
22.06.2019 13:00:00 26,0 18,9 37,8 23,3 21,4 11 6 18 10 Z 1013,7 30 60 0,0
22.06.2019 12:00:00 25,5 18,4 38,1 23,3 21,4 13 7 24 13 Z 1013,9 30 60 0,0
22.06.2019 11:00:00 25,3 17,0 36,5 23,3 21,4 12 6 16 8 ZZW 1013,7 40 60 0,0
22.06.2019 10:00:00 25,3 16,7 32,2 23,3 21,3 8 4 13 7 OZO 1013,8 40 60 0,0
22.06.2019 09:00:00 25,6 13,1 25,3 23,2 21,3 9 5 25 14 NNW 1013,3 40 60 0,0
22.06.2019 08:00:00 23,0 12,6 21,2 23,2 21,3 19 10 26 14 NNW 1013,1 40 50 0,0
22.06.2019 07:00:00 21,3 12,7 19,8 23,3 21,3 14 7 20 11 NNW 1013,0 40 2 0,0
22.06.2019 06:00:00 21,2 12,9 19,9 23,2 21,3 10 5 18 10 NW 1013,2 40 0 0,0
22.06.2019 05:00:00 21,4 13,8 19,8 23,2 21,3 12 6 21 12 NNW 1012,9 46 0 0,0
22.06.2019 04:00:00 21,9 13,8 20,1 23,2 21,3 13 7 23 12 NW 1013,1 30 0 0,0
22.06.2019 03:00:00 21,4 14,8 20,6 23,2 21,3 11 6 21 11 NW 1013,0 30 0 0,0
22.06.2019 02:00:00 21,3 15,8 20,6 23,2 21,3 15 8 21 12 NNW 1013,8 30 0 0,0
22.06.2019 01:00:00 21,7 17,3 20,3 23,1 21,3 8 4 13 7 NW 1014,5 30 0 0,0
22.06.2019 00:00:00 21,5 17,7 20,6 23,1 21,3 6 3 14 8 NW 1014,3 30 0 0,0
21.06.2019 23:00:00 23,1 18,2 20,3 23,1 21,3 11 6 18 10 NNW 1013,8 30 0 0,0
21.06.2019 22:00:00 22,9 18,4 20,4 23,1 21,3 4 2 8 4 NNO 1014,6 30 0 0,0
21.06.2019 21:00:00 22,9 19,7 22,5 23,1 21,2 5 3 9 5 O 1014,6 30 51 0,0
21.06.2019 20:00:00 23,6 19,7 25,9 23,1 21,2 8 5 11 6 OZO 1013,9 30 60 0,0
21.06.2019 19:00:00 24,2 19,9 32,0 23,1 21,2 5 3 8 4 OZO 1013,5 30 60 0,0
21.06.2019 18:00:00 24,5 20,4 34,1 23,1 21,2 5 3 16 9 ZO 1013,7 30 60 0,0
21.06.2019 17:00:00 24,6 20,7 35,3 23,1 21,2 13 7 20 11 O 1013,8 30 60 0,0
21.06.2019 16:00:00 25,0 20,3 35,2 23,1 21,2 16 8 25 13 OZO 1014,5 30 60 0,0
21.06.2019 15:00:00 24,9 19,5 35,7 23,1 21,2 20 11 26 14 O 1014,5 30 60 0,0
21.06.2019 14:00:00 25,3 19,0 36,6 23,1 21,2 17 9 22 12 O 1014,7 30 60 0,0
21.06.2019 13:00:00 25,2 18,4 36,1 23,1 21,2 15 8 19 10 O 1015,4 30 60 0,0
21.06.2019 12:00:00 24,9 17,1 36,3 23,1 21,2 12 6 18 10 OZO 1015,2 30 60 0,0
21.06.2019 11:00:00 25,2 15,8 32,9 23,1 21,1 14 8 20 11 O 1014,7 30 56 0,0
21.06.2019 10:00:00 24,2 14,6 31,1 23,1 21,1 8 4 15 8 ONO 1014,9 30 57 0,0
21.06.2019 09:00:00 23,8 16,1 23,9 23,0 21,1 2 1 12 7 ONO 1015,1 30 55 0,0
21.06.2019 08:00:00 21,4 14,1 19,8 23,0 21,2 5 3 15 8 N 1015,0 30 51 0,0
21.06.2019 07:00:00 19,4 13,6 18,3 23,0 21,1 10 6 14 7 NNW 1014,7 30 19 0,0
21.06.2019 06:00:00 19,3 13,5 18,0 23,0 21,1 9 5 13 7 NNW 1014,3 30 0 0,0
21.06.2019 05:00:00 19,3 13,7 18,2 23,0 21,1 7 4 11 6 N 1014,3 30 0 0,0
21.06.2019 04:00:00 19,3 14,3 18,6 23,0 21,1 6 4 12 7 N 1014,2 30 0 0,0
21.06.2019 03:00:00 20,1 14,7 17,1 23,0 21,1 5 3 10 5 NNW 1014,4 30 0 0,0
21.06.2019 02:00:00 20,4 16,4 17,7 22,9 21,1 6 3 11 6 NO 1014,4 30 0 0,0
21.06.2019 01:00:00 21,0 15,5 18,4 22,9 21,1 8 4 12 7 NNO 1014,1 30 0 0,0
21.06.2019 00:00:00 21,6 18,6 18,7 22,9 21,0 4 2 5 3 O 1014,1 30 0 0,0
20.06.2019 23:00:00 21,4 18,6 19,5 22,9 21,1 3 2 8 4 ZZW 1014,3 30 0 0,0
20.06.2019 22:00:00 21,7 18,5 20,8 22,9 21,0 7 4 11 6 ZZW 1014,1 30 0 0,0
20.06.2019 21:00:00 22,2 18,2 21,7 22,9 21,0 6 3 10 5 Z 1013,3 30 0 0,0
20.06.2019 20:00:00 22,6 17,7 23,9 22,9 21,0 5 3 10 6 ZZO 1013,2 30 11 0,0
20.06.2019 19:00:00 23,2 18,3 26,4 22,9 21,0 9 5 13 7 ZZO 1013,0 30 40 0,0
20.06.2019 18:00:00 23,8 17,8 32,1 22,8 21,0 6 4 13 7 OZO 1012,9 30 57 0,0
20.06.2019 17:00:00 23,8 18,0 34,1 22,9 21,0 9 5 14 8 ZZO 1013,3 30 60 0,0
20.06.2019 16:00:00 24,1 18,7 36,6 22,8 21,0 10 5 16 9 Z 1013,2 30 60 0,0
20.06.2019 15:00:00 24,1 17,8 35,2 22,8 21,0 13 7 16 9 Z 1013,4 30 57 0,0
20.06.2019 14:00:00 24,3 18,0 37,0 22,9 20,9 8 5 14 8 ZO 1013,5 30 60 0,0
20.06.2019 13:00:00 24,0 18,4 35,9 22,8 20,9 11 6 18 10 ZO 1013,6 30 60 0,0
20.06.2019 12:00:00 23,8 18,9 35,6 22,8 20,9 14 7 16 9 OZO 1013,5 30 60 0,0
20.06.2019 11:00:00 23,4 18,7 30,5 22,8 20,9 13 7 16 9 O 1013,5 40 57 0,0
20.06.2019 10:00:00 23,0 18,1 31,3 22,8 20,9 16 8 20 11 O 1013,7 40 60 0,0
20.06.2019 09:00:00 23,6 18,5 25,8 22,9 20,9 7 4 14 7 ONO 1013,9 40 60 0,0
20.06.2019 08:00:00 22,5 15,3 21,1 22,8 20,9 9 5 14 8 NO 1013,6 40 60 0,0
20.06.2019 07:00:00 20,5 11,7 17,8 22,8 20,9 6 4 11 6 NNW 1013,6 40 21 0,0
20.06.2019 06:00:00 19,5 11,5 17,0 22,8 20,9 8 5 10 5 NNW 1013,3 40 0 0,0
20.06.2019 05:00:00 19,8 11,8 16,4 22,8 20,9 8 4 9 5 NNW 1012,9 40 0 0,0
20.06.2019 04:00:00 20,0 12,0 17,6 22,7 20,9 8 4 12 7 N 1012,7 40 0 0,0
20.06.2019 03:00:00 20,3 12,5 17,8 22,7 20,9 9 5 11 6 NNW 1012,9 40 0 0,0
20.06.2019 02:00:00 20,6 12,6 18,6 22,7 20,9 9 5 11 6 NNW 1013,1 40 0 0,0
20.06.2019 01:00:00 20,9 13,3 19,1 22,7 20,8 7 4 10 6 NNW 1013,1 40 0 0,0
20.06.2019 00:00:00 21,7 13,6 17,6 22,7 20,8 6 4 16 9 N 1013,2 40 0 0,0
19.06.2019 23:00:00 22,4 15,7 18,2 22,6 20,8 7 4 16 9 NNO 1013,2 40 0 0,0
19.06.2019 22:00:00 22,8 16,3 21,9 22,6 20,8 8 4 19 11 ZW 1013,0 40 0 0,0
19.06.2019 21:00:00 23,9 15,1 23,4 22,6 20,8 13 7 30 16 ZW 1012,3 40 19 0,0
19.06.2019 20:00:00 23,9 15,4 24,7 22,6 20,8 20 11 28 15 ZZW 1012,5 40 49 0,0
19.06.2019 19:00:00 24,7 15,9 27,5 22,6 20,8 22 12 25 14 Z 1012,5 40 49 0,0
19.06.2019 18:00:00 25,2 15,5 30,3 22,6 20,7 10 5 18 10 OZO 1012,7 40 55 0,0
19.06.2019 17:00:00 25,6 16,7 34,6 22,6 20,7 9 5 14 7 ZZO 1013,4 40 58 0,0
19.06.2019 16:00:00 25,0 15,9 35,9 22,6 20,7 9 5 12 7 O 1013,7 40 57 0,0
19.06.2019 15:00:00 24,9 17,9 38,6 22,6 20,7 9 5 16 9 ZZO 1014,2 30 60 0,0
19.06.2019 14:00:00 24,4 18,8 37,8 22,5 20,7 13 7 18 10 Z 1014,5 20 60 0,0

tt = temperatuur
td = dauwpunt
tt 5cm = temperatuur 5cm
tt -20cm = temperatuur -20cm
tt -100cm = temperatuur -100cm
ff = windsnelheid
fx = windstoten
dd = windrichting
ppp = luchtdruk
vv = zicht
sd = Zonneschijnduur
rr = neerslag

Weerstations in de omgeving